This is the latest recevied weather packets stored in our database for station/object SV9TNF-57. If no packets are shown the sender has not sent any weather packets the latest 10 day(s).
| Time | Temp. | Humidity | Pressure | Rain* | Wind** | Luminosity | Snow |
|---|---|---|---|---|---|---|---|
| 1788343421 | 32.22° C | 35% | 995.1 hPa | 0 mm | 11.18 m/s, 8° | - | - |
| 1788343121 | 32.22° C | 35% | 994.9 hPa | 0 mm | 19.22 m/s, 295° | - | - |
| 1788342821 | 32.22° C | 34% | 994.8 hPa | 0 mm | 11.62 m/s, 347° | - | - |
| 1788342522 | 32.22° C | 35% | 994.9 hPa | 0 mm | 17.43 m/s, 282° | - | - |
| 1788342221 | 32.78° C | 34% | 994.9 hPa | 0 mm | 12.07 m/s, 326° | - | - |
| 1788341921 | 32.22° C | 33% | 995.3 hPa | 0 mm | 6.26 m/s, 291° | - | - |
| 1788341621 | 32.22° C | 33% | 995.2 hPa | 0 mm | 8.05 m/s, 308° | - | - |
| 1788341321 | 32.22° C | 32% | 995.1 hPa | 0 mm | 12.52 m/s, 346° | - | - |
| 1788341021 | 32.22° C | 34% | 995.1 hPa | 0 mm | 9.39 m/s, 9° | - | - |
| 1788340720 | 32.22° C | 33% | 995.1 hPa | 0 mm | 12.52 m/s, 347° | - | - |
| 1788340420 | 32.22° C | 34% | 995.3 hPa | 0 mm | 10.28 m/s, 322° | - | - |
| 1788340120 | 32.22° C | 33% | 995.3 hPa | 0 mm | 5.36 m/s, 283° | - | - |
| 1788339820 | 32.22° C | 34% | 995.2 hPa | 0 mm | 10.28 m/s, 354° | - | - |
| 1788339520 | 31.67° C | 33% | 995.2 hPa | 0 mm | 9.83 m/s, 25° | - | - |
| 1788339220 | 32.22° C | 34% | 995 hPa | 0 mm | 15.65 m/s, 282° | - | - |
| 1788338920 | 32.22° C | 34% | 995.2 hPa | 0 mm | 16.99 m/s, 271° | - | - |
| 1788338620 | 32.22° C | 33% | 994.8 hPa | 0 mm | 16.09 m/s, 341° | - | - |
| 1788338320 | 32.22° C | 32% | 995.1 hPa | 0 mm | 8.49 m/s, 266° | - | - |
| 1788338019 | 32.22° C | 33% | 994.9 hPa | 0 mm | 10.28 m/s, 346° | - | - |
| 1788337719 | 31.67° C | 33% | 994.9 hPa | 0 mm | 10.28 m/s, 12° | - | - |
| 1788337419 | 32.22° C | 32% | 995 hPa | 0 mm | 8.05 m/s, 324° | - | - |
| 1788337119 | 31.67° C | 34% | 995 hPa | 0 mm | 5.36 m/s, 306° | - | - |
| 1788336819 | 31.67° C | 35% | 995.1 hPa | 0 mm | 11.18 m/s, 313° | - | - |
| 1788336519 | 31.67° C | 36% | 995.1 hPa | 0 mm | 13.86 m/s, 329° | - | - |
| 1788336219 | 31.67° C | 36% | 995.1 hPa | 0 mm | 7.15 m/s, 26° | - | - |
* Rain latest hour (hover to see other rain measurements)
** Current wind speed in m/s (hover to see current wind gust speed)